Tracking 19242 objects as of 18-Sep-2018
HD Live streaming from Space Station
objects crossing your sky now

FENGYUN 1C DEB

Track FENGYUN 1C DEB now!
10-day predictions


NORAD ID: 32368
Int'l Code: 1999-025CZM
Perigee: 710.6 km
Apogee: 1,149.4 km
Inclination: 97.9 °
Period: 103.5 minutes
Semi major axis: 7300 km
RCS: 0.0082 m2 (small)
Launch date: May 10, 1999
Source: People's Republic of China (PRC)
Launch site: Taiyaun Space Center, China (TSC)

Note: This is SATELLITE DEBRIS
aabbcc
Your satellite tracking list
Your tracking list is empty




NASA's NSSDC Master Catalog

Two Line Element Set (TLE):
1 32368U 99025CZM 18261.03365363  .00000899  00000-0  50888-3 0  9992
2 32368  97.8630 345.1265 0300525 188.8350 170.7455 13.91655600554763
Source of the keplerian elements: AFSPC